Location: Balsareny
(41.8670°N, 1.8830°E)
Time: 22:34:42
(UTC+01:00)

ISS - Visible Passes

Search period start: 14 November 2019 00:00
Search period end: 24 November 2019 00:00
Orbit: 412 x 421 km, 51.6° (Epoch: 15 November)

Date Brightness Start Highest point End Pass type
(mag) Time Alt. Az. Time Alt. Az. Time Alt. Az.
14 Nov -0.5 05:02:36 11° SE 05:02:36 11° SE 05:02:43 10° SE visible
19 Nov -1.1 19:14:52 10° S 19:15:08 11° SSE 19:15:08 11° SSE visible
20 Nov -0.7 20:01:37 10° SW 20:02:06 13° SW 20:02:06 13° SW visible
21 Nov -2.9 19:13:24 10° SSW 19:16:01 38° S 19:16:01 38° S visible
22 Nov -2.4 18:25:30 10° SSW 18:28:17 25° SE 18:29:51 18° E visible
22 Nov -0.9 20:01:39 10° WSW 20:02:46 19° W 20:02:46 19° W visible
23 Nov -3.7 19:13:02 10° WSW 19:16:23 69° NNW 19:16:29 68° NNW visible
